Date,TemperatureHighF,TemperatureAvgF,TemperatureLowF,DewpointHighF,DewpointAvgF,DewpointLowF,HumidityHigh,HumidityAvg,HumidityLow,PressureMaxIn,PressureMinIn,WindSpeedMaxMPH,WindSpeedAvgMPH,GustSpeedMaxMPH,PrecipitationSumIn
2013-1-1,67.6,55.2,47.3,67.0,54.4,46.2,98,97,92,30.04,29.74,11,6,0,2.67
2013-1-2,47.3,43.2,40.1,46.8,41.6,38.8,98,94,89,30.15,30.01,10,6,0,0.02
2013-1-3,55.6,45.9,35.6,39.7,38.2,35.1,98,76,51,30.27,30.14,12,6,0,0.00
2013-1-4,49.1,45.9,43.5,41.1,38.7,37.2,85,76,66,30.37,30.19,11,4,0,0.00
2013-1-5,45.5,44.1,42.6,45.0,43.6,42.1,98,98,98,30.24,30.11,9,4,0,0.64
2013-1-6,57.7,48.3,39.2,48.4,45.1,38.7,98,89,70,30.20,30.09,11,6,0,0.00
2013-1-7,60.3,47.3,34.7,47.6,42.5,34.2,98,85,61,30.19,29.97,8,3,0,0.00
2013-1-8,63.5,57.4,50.4,62.9,56.2,46.7,98,96,87,29.97,29.77,16,4,0,0.22
2013-1-9,69.3,64.8,61.9,68.7,64.2,61.3,98,98,98,29.90,29.76,12,6,0,1.59
2013-1-10,69.1,62.1,52.2,64.7,60.4,51.7,98,95,78,29.94,29.80,9,2,0,0.30
2013-1-11,74.5,66.2,55.2,64.9,60.4,54.6,98,83,59,29.89,29.74,8,3,0,0.00
2013-1-12,75.6,72.6,67.3,75.0,72.0,66.7,98,98,98,29.76,29.55,11,6,0,0.06
2013-1-13,72.3,51.1,44.4,71.7,50.1,43.0,98,96,93,29.99,29.62,16,8,0,0.06
2013-1-14,45.0,41.8,38.7,44.5,41.3,38.2,98,98,98,30.08,29.91,14,7,0,0.41
2013-1-15,39.9,37.1,34.9,39.4,36.6,34.4,98,98,98,29.99,29.87,15,6,0,0.05
2013-1-16,53.2,41.7,29.7,39.6,34.7,29.2,98,79,50,30.12,29.96,11,5,0,0.00
2013-1-17,61.2,42.5,25.0,40.9,32.7,24.5,98,73,41,30.28,30.11,12,3,0,0.00
2013-1-19,66.7,53.1,43.7,51.8,48.4,43.2,98,86,58,30.11,30.06,5,1,0,0.00
2013-1-20,70.5,53.0,36.3,56.8,47.9,35.8,98,85,54,30.14,29.96,6,1,0,0.00
2013-1-21,71.1,54.1,40.1,56.2,48.6,39.6,98,84,56,30.10,30.00,4,1,0,0.00
2013-1-22,69.8,54.5,41.7,55.1,48.2,41.2,98,81,58,30.20,30.08,8,3,0,0.00
2013-1-23,73.9,59.7,41.4,62.4,55.2,40.9,98,87,63,30.22,30.09,11,3,0,0.00
2013-1-24,73.2,61.9,52.5,70.3,60.9,52.0,98,97,86,30.16,30.01,7,2,0,0.00
2013-1-25,76.5,67.2,56.1,69.7,63.3,55.5,98,88,72,30.05,29.92,9,4,0,0.01
2013-1-28,72.9,71.0,69.8,72.3,70.4,69.2,98,98,98,29.86,29.84,9,5,0,0.00
2013-1-29,76.1,72.7,70.0,74.6,72.0,69.4,98,98,94,29.82,29.47,16,8,0,0.13
2013-1-30,59.9,53.8,35.8,57.9,41.2,33.8,98,66,40,30.07,29.58,27,8,0,0.01
2013-1-31,66.6,54.5,30.2,44.0,37.8,29.7,98,58,31,30.17,30.07,10,4,0,0.00
2013-2-1,70.3,56.7,41.7,50.6,46.3,41.2,98,72,40,30.24,30.12,8,2,0,0.00
2013-2-2,74.5,66.8,54.9,60.6,57.5,54.3,98,74,54,30.14,30.02,8,3,0,0.00
2013-2-3,72.0,64.7,46.4,49.6,40.9,32.7,98,46,24,30.18,29.95,10,4,0,0.00
2013-2-4,69.8,65.6,57.4,66.3,63.7,56.8,98,94,86,29.86,29.70,7,3,0,0.00
2013-2-5,77.7,69.1,62.1,71.0,65.8,61.5,98,90,70,29.85,29.74,4,2,0,0.02
2013-2-6,65.7,63.1,61.0,65.1,62.5,60.4,98,98,98,29.91,29.70,12,4,0,0.98
2013-2-7,68.0,63.5,58.1,66.9,62.8,57.5,98,98,94,29.82,29.75,4,2,0,0.00
2013-2-8,64.4,57.4,51.3,58.4,55.4,50.8,98,94,80,30.01,29.96,10,5,0,0.01
2013-2-9,66.6,58.9,46.4,66.0,58.3,45.9,98,98,98,30.02,29.74,13,5,0,0.00
2013-2-10,75.6,67.2,61.7,75.0,66.6,61.1,98,98,96,29.80,29.64,13,5,0,0.30
2013-2-11,62.4,56.0,51.4,61.8,54.6,50.9,98,95,80,29.94,29.80,12,6,0,0.70
2013-2-12,64.6,56.4,53.6,64.0,55.8,53.0,98,98,98,29.84,29.63,12,5,0,0.45
2013-2-13,59.5,54.0,43.7,47.9,45.6,43.2,98,75,59,29.94,29.86,11,4,0,0.00
2013-2-14,57.6,46.8,33.1,48.4,43.4,32.6,98,89,66,30.02,29.94,4,1,0,0.00
2013-2-15,69.1,51.4,35.6,51.2,43.4,35.1,98,77,45,30.15,29.96,16,5,0,0.00
2013-2-16,60.4,46.6,32.7,37.5,32.8,27.2,98,62,35,30.28,30.10,12,4,0,0.00
2013-2-17,70.5,52.4,33.1,55.3,44.9,32.6,98,79,47,30.13,29.94,13,4,0,0.00
2013-2-18,71.1,65.1,55.0,67.8,62.2,54.4,98,91,82,29.93,29.69,24,7,0,0.71
2013-2-19,68.0,56.5,46.6,54.6,43.7,36.2,98,66,33,30.12,29.90,11,5,0,0.00
2013-2-20,59.9,54.0,47.3,55.1,43.7,30.5,91,69,39,30.03,29.70,14,6,0,0.00
2013-2-21,75.2,65.2,56.5,74.6,64.4,55.7,98,98,90,29.69,29.50,19,6,0,0.13
2013-2-22,66.0,58.3,54.1,60.3,55.4,53.3,98,91,69,29.83,29.69,11,5,0,0.00
2013-2-23,70.3,56.9,48.0,56.2,52.0,47.5,98,85,59,29.84,29.72,13,4,0,0.00
2013-2-24,69.8,58.1,43.3,58.7,52.8,42.8,98,84,58,29.81,29.52,8,4,0,0.00
2013-2-25,77.2,63.8,47.7,72.3,52.6,27.6,98,73,18,29.54,29.28,20,7,0,0.54
2013-2-26,63.9,52.7,43.2,46.3,41.2,35.7,98,67,46,29.79,29.54,19,7,0,0.00
2013-2-27,75.2,54.8,39.9,55.7,43.5,34.5,98,70,31,29.99,29.76,19,4,0,0.00
2013-2-28,57.7,45.6,36.3,40.2,35.1,31.3,98,69,41,30.12,29.97,13,4,0,0.00
2013-3-1,64.0,48.4,30.4,39.0,34.6,29.9,98,64,33,30.11,29.97,14,4,0,0.00
2013-3-2,54.7,43.9,31.1,34.9,31.9,27.8,98,65,39,30.19,30.07,18,6,0,0.00
2013-3-3,67.1,47.6,27.0,51.6,36.5,26.5,98,71,35,30.15,29.87,9,3,0,0.00
2013-3-4,76.6,64.8,53.6,66.9,61.0,52.3,98,89,67,29.88,29.63,22,8,0,0.00
2013-3-5,70.5,63.6,48.6,65.2,49.4,31.3,98,65,31,30.15,29.65,20,7,0,0.00
2013-3-6,68.5,50.8,34.2,40.4,32.7,24.4,88,55,19,30.27,30.08,9,3,0,0.00
2013-3-7,69.3,52.6,36.1,51.6,43.9,35.6,98,76,37,30.17,30.04,9,2,0,0.00
2013-3-8,73.2,58.8,43.3,62.4,54.7,42.8,98,88,65,30.10,29.93,9,4,0,0.00
2013-3-9,73.9,65.9,59.2,68.1,64.2,58.6,98,95,79,29.93,29.65,14,6,0,0.00
2013-3-10,70.0,61.4,52.0,69.4,59.9,44.7,98,95,73,29.88,29.60,13,5,0,0.53
2013-3-11,63.0,51.0,39.6,43.6,39.0,35.1,98,66,39,29.97,29.82,16,5,0,0.00
2013-3-12,75.7,52.4,31.8,47.1,38.8,31.3,98,68,28,30.12,29.95,7,2,0,0.00
2013-3-13,72.9,55.3,39.6,44.8,40.6,33.8,98,65,24,30.31,30.12,11,3,0,0.00
2013-3-14,73.6,56.1,38.7,51.4,45.0,38.2,98,72,36,30.30,30.15,10,3,0,0.00
2013-3-15,78.4,60.9,42.4,63.5,54.5,41.9,98,82,49,30.14,29.91,12,4,0,0.00
2013-3-16,79.7,66.7,56.1,67.5,61.9,55.5,98,86,57,29.91,29.71,14,5,0,0.01
2013-3-17,79.2,69.9,62.8,75.1,68.0,62.2,98,94,74,29.74,29.56,12,5,0,0.04
2013-3-18,87.6,75.1,68.2,74.6,70.1,67.6,98,86,57,29.75,29.56,9,4,0,0.00
2013-3-19,82.0,70.1,55.2,68.5,60.5,46.8,98,73,49,29.85,29.72,12,5,0,0.00
2013-3-20,75.0,62.3,49.8,65.6,49.3,37.9,98,67,28,30.04,29.80,14,6,0,0.19
2013-3-21,71.1,60.6,47.3,64.1,51.3,40.4,93,72,49,29.89,29.57,18,5,0,0.01
2013-3-22,83.1,73.2,66.0,75.6,70.6,64.2,98,92,75,29.60,29.48,14,4,0,0.04
2013-3-23,74.8,70.6,68.9,74.2,70.0,68.3,98,98,98,29.57,29.40,7,3,0,0.02
2013-3-24,68.7,58.7,46.2,68.1,47.8,35.2,98,70,40,29.97,29.45,22,8,0,0.00
2013-3-25,62.4,48.6,32.7,35.8,31.0,26.8,98,56,27,30.20,29.98,15,5,0,0.00
2013-3-26,62.8,48.1,31.6,35.0,28.8,24.4,91,50,27,30.34,30.17,13,4,0,0.00
2013-3-27,69.4,51.2,32.0,48.1,41.1,31.5,98,73,40,30.26,30.07,15,3,0,0.00
2013-3-28,72.9,60.2,49.6,60.9,55.3,47.9,98,85,64,30.16,30.04,10,3,0,0.00
2013-3-29,78.3,64.9,53.2,67.4,61.2,52.6,98,89,65,30.11,29.97,9,4,0,0.00
2013-3-30,79.3,68.2,59.9,68.7,64.7,59.3,98,89,68,29.99,29.81,10,3,0,0.00
2013-3-31,79.9,66.5,60.1,72.8,65.0,59.5,98,95,76,29.83,29.71,11,4,0,0.68
2013-4-1,82.6,69.3,59.5,71.5,65.6,58.9,98,89,65,29.92,29.77,6,2,0,0.00
2013-4-2,76.6,66.6,58.1,69.3,63.5,57.5,98,90,69,29.89,29.70,12,3,0,0.01
2013-4-3,64.6,57.0,50.0,64.0,56.4,49.5,98,98,98,29.94,29.64,15,7,0,2.39
2013-4-4,54.0,50.4,48.0,51.1,48.9,47.5,98,95,87,30.02,29.85,12,5,0,0.00
2013-4-5,77.0,58.9,44.2,56.5,50.9,43.7,98,78,44,30.08,29.91,9,3,0,0.00
2013-4-6,74.8,61.7,48.4,63.7,57.6,47.9,98,87,66,29.96,29.82,11,3,0,0.00
2013-4-7,79.5,69.4,59.5,68.8,65.0,58.9,98,87,66,29.86,29.71,12,4,0,0.00
2013-4-8,80.2,72.3,66.4,73.9,69.7,65.8,98,92,74,29.75,29.66,12,5,0,0.00
2013-4-9,81.3,73.9,67.3,78.6,72.9,66.7,98,97,86,29.68,29.59,17,6,0,0.01
2013-4-10,79.5,70.8,51.1,78.9,70.2,50.6,98,98,98,29.67,29.54,10,6,0,0.98
2013-4-11,72.1,54.3,45.0,55.8,50.3,44.5,98,88,53,29.75,29.58,14,5,0,1.81
2013-4-12,80.1,60.2,43.2,58.3,50.9,42.7,98,77,37,29.86,29.70,9,2,0,0.00
2013-4-13,81.3,64.6,47.5,63.3,57.1,47.0,98,80,46,29.85,29.65,10,3,0,0.00
2013-4-14,83.3,69.6,59.7,72.1,65.7,59.1,98,89,64,29.65,29.51,6,2,0,0.00
2013-4-15,86.4,73.7,61.2,78.7,71.4,60.6,98,93,73,29.71,29.58,9,3,0,0.00
2013-4-16,82.9,76.2,73.0,81.4,75.6,72.4,98,98,95,29.80,29.67,12,4,0,0.03
2013-4-17,79.0,76.2,74.3,78.4,75.6,73.7,98,98,98,29.80,29.63,16,5,0,0.03
2013-4-18,78.6,68.2,51.8,78.0,67.6,51.3,98,98,98,29.87,29.53,12,6,0,0.36
2013-4-19,66.9,53.3,42.6,51.1,42.9,38.1,98,72,38,30.09,29.87,14,7,0,0.00
2013-4-20,72.1,55.0,36.1,50.5,43.5,35.6,98,71,32,30.12,29.93,12,3,0,0.00
2013-4-21,77.7,60.8,44.2,59.8,53.5,43.7,98,80,50,30.04,29.90,10,2,0,0.00
2013-4-22,81.7,65.9,51.3,65.5,57.8,50.8,98,79,47,29.96,29.78,7,2,0,0.00
2013-4-23,81.5,69.4,54.9,75.5,67.9,54.3,98,95,79,29.84,29.73,8,2,0,0.00
2013-4-24,72.9,61.8,49.6,72.3,57.2,49.1,98,86,61,30.06,29.76,17,6,0,0.29
2013-4-25,75.7,63.9,52.3,57.7,53.6,49.6,98,72,40,30.18,30.03,11,5,0,0.00
2013-4-26,79.3,70.6,61.7,74.9,67.9,55.7,98,92,72,30.06,29.93,9,3,0,0.00
2013-4-27,79.5,73.1,68.7,78.7,72.3,68.1,98,98,91,29.96,29.77,11,3,0,0.34
2013-4-28,85.5,73.3,62.8,74.2,67.7,62.2,98,85,57,29.85,29.70,6,2,0,0.00
2013-4-29,86.0,71.0,58.1,77.0,67.1,57.5,98,89,60,29.79,29.66,8,2,0,0.00
2013-4-30,87.1,73.9,66.6,76.9,70.5,66.0,98,90,61,29.70,29.56,8,2,0,0.00
2013-5-1,84.7,75.0,68.2,77.7,71.9,67.6,98,91,71,29.72,29.62,6,2,0,0.00
2013-5-2,78.8,68.0,53.2,72.6,66.2,52.6,98,94,76,29.95,29.71,14,6,0,0.01
2013-5-3,68.0,55.0,43.9,52.4,45.2,40.2,98,74,37,29.98,29.86,19,8,0,0.00
2013-5-4,81.9,61.0,37.9,60.1,48.3,37.4,98,70,31,29.93,29.67,12,3,0,0.00
2013-5-5,71.4,59.1,47.3,56.6,49.7,45.8,98,73,48,29.92,29.78,12,4,0,0.00
2013-5-6,80.8,63.4,43.7,62.7,55.1,43.2,98,77,49,29.95,29.78,9,2,0,0.00
2013-5-7,91.0,72.4,56.3,67.7,62.5,55.7,98,75,42,29.90,29.76,7,2,0,0.00
2013-5-8,83.8,71.5,58.1,75.1,66.2,57.5,98,85,61,29.91,29.81,10,2,0,0.00
2013-5-9,77.9,73.1,66.2,77.3,72.5,65.6,98,98,98,29.86,29.71,10,3,0,0.00
2013-5-10,81.1,70.2,66.0,75.0,69.0,65.4,98,96,79,29.88,29.69,16,3,0,9.84
2013-5-11,87.3,74.7,67.3,76.3,69.8,66.7,98,86,59,29.90,29.73,11,3,0,0.07
2013-5-12,82.4,71.3,61.7,70.2,64.9,60.1,98,82,55,30.00,29.89,10,4,0,0.00
2013-5-13,85.1,68.1,49.6,62.4,56.7,49.1,98,72,32,30.14,30.00,7,2,0,0.00
2013-5-14,85.8,70.8,54.1,73.3,61.7,53.4,98,77,34,30.08,29.93,8,2,0,0.00
2013-5-15,78.6,70.6,62.2,74.7,68.0,61.6,98,92,78,29.99,29.76,11,2,0,0.00
2013-5-16,83.5,75.1,67.3,75.1,72.1,66.7,98,91,75,29.80,29.65,9,3,0,0.00
2013-5-17,88.9,78.3,71.6,80.3,75.2,71.0,98,91,75,29.79,29.68,9,3,0,0.00
2013-5-18,90.3,80.5,74.5,78.5,75.7,73.9,98,87,63,29.80,29.73,8,4,0,0.00
2013-5-19,90.1,81.3,74.5,79.5,76.8,73.9,98,87,66,29.75,29.67,12,4,0,0.00
2013-5-20,88.9,80.9,76.1,80.3,77.8,75.5,98,91,75,29.75,29.62,10,4,0,0.01
2013-5-21,88.5,81.1,75.6,80.2,77.9,75.0,98,91,75,29.70,29.55,11,3,0,0.00
2013-5-22,88.3,78.0,68.5,80.3,75.1,67.9,98,91,74,29.76,29.61,11,3,0,0.09
2013-5-23,90.5,80.0,71.2,82.5,75.8,70.6,98,88,69,29.90,29.73,7,2,0,0.00
2013-5-24,91.8,79.4,72.0,81.2,76.1,71.4,98,90,69,29.95,29.83,8,2,0,0.00
2013-5-25,89.4,78.6,70.7,80.6,75.5,70.1,98,91,70,30.01,29.91,7,2,0,0.00
2013-5-26,89.6,79.8,70.9,79.4,75.0,70.3,98,86,65,29.94,29.83,6,2,0,0.00
2013-5-27,89.6,79.1,68.5,79.5,74.2,67.9,98,86,65,29.90,29.75,8,2,0,0.00
2013-5-28,89.6,80.2,71.8,78.8,74.6,71.2,98,84,62,29.83,29.70,11,3,0,0.00
2013-5-29,87.4,80.3,74.3,79.2,76.6,73.7,98,89,73,29.76,29.64,8,3,0,0.00
2013-5-30,88.2,81.7,76.5,82.7,78.7,75.9,98,91,79,29.74,29.66,14,4,0,0.00
2013-5-31,91.2,83.3,78.1,83.0,80.0,77.5,98,90,75,29.73,29.66,14,4,0,0.00
2013-6-1,93.2,83.9,76.1,83.2,80.0,75.5,98,89,69,29.74,29.66,9,4,0,0.00
2013-6-2,85.8,76.9,69.3,78.3,74.2,68.7,98,92,72,29.86,29.68,11,3,0,0.35
2013-6-3,91.8,79.2,66.7,77.2,72.3,66.1,98,82,55,29.76,29.64,11,3,0,0.00
2013-6-4,96.3,82.1,69.8,81.5,75.3,69.2,98,82,53,29.76,29.63,6,2,0,0.00
2013-6-5,97.2,83.1,70.9,83.6,78.4,70.3,98,87,60,29.72,29.58,7,2,0,0.00
2013-6-6,91.8,81.3,74.5,85.3,78.6,73.9,98,92,72,29.67,29.59,12,2,0,0.24
2013-6-8,77.9,74.6,72.7,77.0,74.0,72.1,98,98,97,29.71,29.67,2,0,0,0.00
2013-6-9,91.0,76.5,71.4,83.9,75.2,70.8,98,96,74,29.79,29.64,9,2,0,1.56
2013-6-10,93.0,85.0,71.8,83.8,79.8,71.2,98,85,66,29.82,29.77,8,2,0,0.00
2013-6-11,95.4,83.5,72.5,86.1,79.2,71.9,98,88,66,29.87,29.81,6,1,0,0.00
2013-6-12,95.2,84.2,73.0,85.9,80.0,72.4,98,88,65,29.88,29.80,7,2,0,0.00
2013-6-13,100.8,85.9,74.3,87.3,80.2,73.7,98,85,54,29.88,29.73,5,2,0,0.00
2013-6-14,98.8,85.6,73.6,88.5,81.5,73.0,98,89,64,29.82,29.67,14,2,0,0.12
2013-6-15,95.5,81.8,72.3,88.1,79.2,71.7,98,93,69,29.83,29.70,6,2,0,0.14
2013-6-16,97.3,84.3,72.9,87.5,79.5,72.3,98,87,61,29.88,29.74,7,2,0,0.00
2013-6-17,96.1,84.5,74.5,87.6,79.7,73.9,98,87,59,29.84,29.70,9,2,0,0.00
2013-6-18,93.6,82.7,74.8,87.5,80.7,74.2,98,94,74,29.82,29.71,14,3,0,0.99
2013-6-19,91.9,83.8,75.9,91.2,83.1,75.3,98,98,88,29.83,29.74,9,3,0,0.06
2013-6-20,94.8,83.8,73.6,90.7,82.1,73.0,98,95,79,29.90,29.80,8,1,0,0.00
2013-6-21,96.4,83.5,72.9,91.2,80.7,72.3,98,92,64,29.95,29.85,8,1,0,0.00
2013-6-22,94.1,83.1,72.5,92.7,81.0,71.9,98,94,77,29.92,29.80,10,2,0,0.00
2013-6-23,93.6,81.8,72.3,92.1,80.5,71.7,98,96,75,29.91,29.78,8,2,0,1.40
2013-6-24,94.3,83.8,73.2,91.4,82.2,72.6,98,95,77,29.91,29.80,7,2,0,0.04
2013-6-25,94.5,84.5,75.2,91.6,82.2,74.6,98,93,74,29.87,29.75,9,2,0,0.00
2013-6-26,96.6,85.5,75.4,91.2,81.7,74.8,98,89,61,29.85,29.76,10,2,0,0.00
2013-6-27,102.2,85.4,72.7,91.2,81.0,72.1,98,88,55,29.86,29.73,7,2,0,0.00
2013-6-28,100.6,85.6,74.3,89.3,81.8,73.7,98,90,64,29.80,29.61,9,3,0,0.00
2013-6-29,103.3,88.3,75.0,87.5,80.3,74.4,98,80,48,29.66,29.52,9,3,0,0.00
2013-6-30,97.9,84.7,67.8,84.8,73.3,67.2,98,72,46,29.67,29.56,9,2,0,0.00
2013-7-1,91.0,78.7,65.1,77.3,72.3,64.5,98,82,57,29.77,29.68,9,2,0,0.00
2013-7-2,93.0,80.2,66.2,80.2,72.6,65.6,98,80,48,29.84,29.74,10,2,0,0.00
2013-7-3,93.2,81.2,67.6,79.5,73.4,67.0,98,80,50,29.86,29.75,9,3,0,0.00
2013-7-4,92.7,81.0,68.0,81.0,74.4,67.4,98,83,55,29.80,29.73,8,2,0,0.00
2013-7-5,95.5,82.6,67.6,85.9,75.7,67.0,98,83,49,29.81,29.70,11,3,0,0.00
2013-7-6,94.6,81.6,71.8,85.9,78.2,71.2,98,90,64,29.79,29.70,10,4,0,0.00
2013-7-7,86.9,79.6,74.5,86.3,79.0,73.9,98,98,93,29.86,29.72,6,2,0,0.15
2013-7-8,93.7,80.8,73.4,90.8,79.9,72.8,98,97,78,29.96,29.84,9,2,0,0.00
2013-7-9,96.4,84.4,72.7,92.7,81.3,72.1,98,91,68,29.98,29.86,7,2,0,0.00
2013-7-10,96.4,85.2,74.5,91.0,81.8,73.9,98,90,69,29.91,29.79,6,2,0,0.00
2013-7-11,95.9,84.6,75.0,87.2,80.8,74.4,98,89,68,29.84,29.70,7,2,0,0.00
2013-7-12,102.0,84.2,75.2,86.3,80.4,74.6,98,90,57,29.80,29.64,14,2,0,0.00
2013-7-13,97.7,84.8,72.9,89.4,77.9,69.2,98,83,41,29.77,29.66,10,2,0,0.00
2013-7-14,89.8,78.9,70.9,87.9,78.0,70.3,98,97,85,29.79,29.70,7,2,0,0.05
2013-7-15,91.8,79.9,72.9,90.1,79.1,72.3,98,97,85,29.90,29.72,8,3,0,0.00
2013-7-16,88.9,77.1,73.6,88.3,76.5,73.0,98,98,98,29.92,29.86,15,4,0,1.70
2013-7-22,82.4,82.4,82.4,81.8,81.8,81.8,98,98,98,29.82,29.82,0,0,0,0.00
2013-7-23,95.2,85.1,75.6,87.7,81.9,75.0,98,91,74,29.87,29.74,10,4,0,0.00
2013-7-24,95.9,88.3,73.4,87.4,83.9,72.8,98,88,71,29.83,29.70,8,3,0,0.00
2013-7-25,97.7,85.8,77.7,87.6,82.6,77.1,98,91,66,29.87,29.76,7,2,0,0.00
2013-7-26,88.7,79.5,75.4,86.7,78.8,74.8,98,98,94,29.88,29.83,5,1,0,0.00
2013-7-29,87.6,84.0,80.4,83.2,81.5,79.8,98,92,87,29.89,29.86,2,1,0,0.00
2013-7-30,95.4,95.4,95.4,84.5,84.5,84.5,71,71,71,29.89,29.89,3,3,0,0.00